Wetbulb
40.54 41.79 42.88 43.86 44.35 44.77 45.77 46.13 46.21 46.59 47.10 47.26 46.82 46.39 46.65 46.74 46.65 43.53 40.88 42.61 37.86 32.69 35.09 39.14 39.29 35.69 35.09 34.59 30.84 34.74 33.93 35.55 33.83 27.53 26.10 25.63 24.35 30.87 31.77 34.21 32.62 29.70 29.17 26.66 26.93 26.38 23.20 41.09 41.16 36.30 37.98 41.69 40.58 40.89
40.43 42.18 43.09 43.70 44.25 44.87 45.45 45.75 45.95 46.39 46.82 47.16 46.82 46.25 46.57 46.69 46.44 45.20 39.79 43.10 42.86 36.63 35.99 39.91 40.08 41.37 41.21 41.42 38.85 37.34 36.51 35.75 34.69 29.84 30.06 30.29 26.17 28.82 32.25 25.95 37.66 29.27 33.32 28.71 30.88 30.08 39.61 41.84 40.34 42.82 42.25 39.05 39.14 39.93
41.26 42.47 43.01 43.73 44.14 45.01 45.26 45.28 45.93 46.51 46.69 46.83 47.05 46.55 46.37 46.62 46.39 44.80 39.81 42.56 40.58 35.17 34.56 34.15 34.45 40.06 43.45 44.95 46.37 35.86 36.69 39.82 38.31 39.28 34.54 33.33 27.52 33.77 27.27 29.27 32.56 38.04 40.64 36.13 34.00 39.04 40.57 41.13 41.93 42.11 41.88 40.77 40.41 40.92
41.49 42.65 43.24 43.72 44.52 45.03 44.98 45.24 46.24 46.49 46.46 46.80 46.78 46.78 46.27 46.39 46.33 45.39 40.57 43.00 40.75 36.86 27.97 31.23 42.38 38.99 43.21 44.33 46.23 44.33 42.16 43.02 41.57 39.37 34.10 32.14 32.43 38.28 33.97 35.94 32.81 37.48 38.29 38.05 37.40 39.47 39.21 38.49 38.70 39.29 39.74 41.29 40.71 40.63
41.88 42.76 43.32 44.24 44.62 44.53 45.12 45.67 45.64 45.96 46.09 46.41 46.94 46.87 46.67 46.64 46.46 44.93 43.27 43.05 42.89 35.59 29.27 32.10 39.00 41.77 44.11 42.62 42.51 43.72 42.36 40.29 37.14 33.96 32.97 33.03 37.29 36.95 37.65 36.64 32.87 36.77 33.54 32.82 31.03 34.53 37.46 35.79 37.43 38.89 37.67 37.25 39.45 38.03
42.32 43.05 44.03 44.26 44.92 45.39 44.79 45.14 45.28 45.37 45.47 45.84 46.28 47.12 46.98 46.57 45.98 42.97 33.81 42.79 44.16 41.67 35.17 29.77 40.13 40.18 42.38 42.51 41.51 40.45 41.56 39.76 39.40 37.40 34.11 38.40 40.92 38.35 33.37 30.68 32.88 34.81 36.36 35.28 32.46 36.72 37.08 38.10 37.60 37.48 36.79 36.89 37.88 36.04
42.68 43.67 44.08 44.76 44.76 44.68 44.81 44.76 45.05 45.90 45.74 45.89 46.07 46.82 46.92 46.51 44.41 37.12 36.12 40.44 44.84 43.89 36.41 30.04 32.72 39.74 42.65 41.77 39.74 39.17 40.69 40.27 40.32 37.34 35.44 37.36 37.47 38.78 33.00 29.04 31.01 32.40 33.90 33.62 34.25 35.96 35.19 36.26 33.80 35.09 35.04 36.31 36.26 34.36
43.16 43.56 44.04 43.88 44.87 44.89 44.58 44.88 46.20 46.40 46.35 46.19 46.18 46.75 46.80 46.64 43.96 39.68 43.44 45.20 44.39 40.62 38.47 30.46 31.37 36.24 41.48 36.69 36.88 40.12 38.91 39.84 38.34 36.53 37.70 36.86 38.22 37.24 26.84 28.29 29.16 30.01 31.87 30.59 31.31 34.71 34.56 35.93 35.53 32.97 32.63 33.07 31.53 29.39
43.02 43.65 43.81 43.84 44.67 44.26 43.78 45.99 46.51 46.62 46.35 46.28 46.51 46.58 41.37 40.43 36.57 40.15 45.63 45.43 44.78 40.26 31.45 29.05 26.69 30.22 40.24 36.58 37.80 38.58 38.86 31.58 37.29 32.23 34.36 36.20 31.21 23.48 26.74 27.16 27.20 27.32 26.84 27.07 29.84 30.15 30.55 30.31 30.75 31.13 29.48 28.27 27.40 26.37
43.34 42.92 43.07 43.61 43.78 43.07 44.31 45.30 45.96 46.42 46.44 44.81 42.23 36.69 32.00 39.63 45.63 44.73 40.51 34.94 37.36 37.25 36.83 32.71 35.96 32.35 38.13 35.79 34.31 34.26 35.02 32.48 30.38 32.49 37.70 28.01 22.77 28.27 28.44 27.96 27.47 27.03 26.98 27.21 24.62 23.92 25.34 25.79 27.39 27.21 25.99 25.85 25.28 23.92
42.22 42.09 42.29 41.86 43.32 42.56 44.21 44.41 45.17 45.69 45.91 41.87 37.03 34.34 42.12 45.44 40.71 36.78 31.37 31.66 32.46 29.96 31.51 33.32 35.20 32.33 36.94 32.32 31.35 32.70 31.72 31.99 25.02 29.82 31.33 27.46 22.78 25.91 27.75 25.91 26.07 26.14 26.37 25.51 25.60 24.99 24.42 24.72 25.23 24.26 22.60 22.50 21.94 21.22
41.47 41.56 41.74 42.66 43.59 42.44 44.21 44.47 44.85 44.15 41.84 41.00 39.96 41.74 41.77 38.24 35.26 31.16 27.12 29.73 28.09 26.46 32.21 28.89 32.05 35.94 34.70 37.79 33.19 33.04 30.52 31.03 24.31 34.44 29.91 18.54 21.93 24.13 25.01 23.89 23.40 23.93 23.88 23.06 22.95 21.45 20.66 21.12 22.23 21.12 20.46 20.14 19.92 20.11
40.85 40.96 41.30 42.53 42.18 42.24 43.87 44.92 44.89 44.14 44.35 42.46 37.97 33.62 33.52 29.70 25.84 22.82 22.77 24.63 27.93 31.32 32.92 33.13 32.29 33.77 33.43 33.96 32.29 32.69 28.15 27.58 29.49 25.50 17.24 18.02 21.85 22.75 22.73 23.19 21.93 22.55 22.43 21.26 19.90 19.97 19.06 18.33 18.30 18.55 15.86 16.20 15.49 15.31
41.03 40.38 40.02 40.66 41.19 41.60 41.92 42.05 42.84 41.54 38.06 31.55 27.37 15.79 21.28 23.06 22.40 23.05 24.94 26.29 28.01 29.41 30.09 32.11 32.32 31.68 32.69 30.32 31.40 27.61 28.65 27.84 24.41 18.02 11.76 18.86 20.63 21.44 21.99 22.61 20.86 19.79 20.16 19.29 16.92 15.20 16.23 16.36 15.23 15.53 15.35 14.60 14.08 13.44
40.94 39.94 39.58 38.67 40.24 40.72 41.44 41.33 40.76 37.07 31.65 26.15 26.04 19.70 19.81 23.99 26.23 25.67 28.65 28.66 28.47 30.02 30.18 31.35 32.36 32.88 28.91 24.74 29.32 26.08 22.87 16.31 16.80 11.60 16.55 19.66 20.64 20.50 19.48 21.12 19.55 18.58 15.67 15.26 12.01 13.66 12.24 13.29 13.69 13.67 14.01 13.92 13.48 12.84
42.88 40.75 36.47 38.76 39.22 41.20 41.50 40.19 37.87 35.90 30.71 25.94 23.96 23.36 24.83 23.85 21.44 21.46 22.42 22.55 29.11 28.57 30.25 30.43 29.69 25.35 22.92 24.12 20.39 14.38 19.63 11.86 14.37 18.42 19.38 18.54 17.54 18.24 16.51 18.70 17.28 18.64 14.72 14.53 14.79 14.56 13.46 11.50 12.15 12.44 13.07 13.48 14.08 13.21
42.39 38.06 39.25 38.88 41.26 41.25 41.66 35.89 32.21 28.67 27.07 24.81 21.66 24.74 25.35 24.25 21.79 22.21 25.26 25.67 29.96 28.78 27.51 28.41 23.87 23.18 27.19 21.04 16.58 19.06 14.13 16.41 17.34 18.43 19.58 18.88 17.28 16.19 18.61 18.52 16.48 15.96 15.18 16.66 17.18 17.77 16.40 15.86 15.12 14.14 12.26 13.00 13.83 13.88
41.02 37.50 39.95 39.55 39.90 39.65 36.50 34.61 28.94 26.17 21.96 24.02 20.17 22.29 24.06 24.73 24.34 24.80 26.87 27.42 28.01 28.42 27.41 23.31 25.67 18.13 15.52 15.00 13.48 17.34 16.87 18.90 20.12 19.26 16.91 16.66 17.87 17.92 18.20 15.90 14.77 13.67 13.02 12.88 13.64 12.34 13.25 13.16 13.13 13.10 13.57 14.13 13.74 13.12
39.98 37.44 39.26 39.83 38.10 35.35 29.61 29.74 29.32 22.65 23.55 25.20 25.79 26.34 25.29 25.29 26.43 25.39 25.14 26.17 25.58 24.99 24.20 19.76 13.69 13.25 14.53 18.50 16.32 17.92 18.76 17.38 16.75 17.90 17.60 15.30 16.11 17.96 18.95 19.80 20.24 19.74 20.10 19.01 18.03 17.66 18.98 18.82 18.05 17.78 17.38 16.21 13.20 13.23
41.15 40.32 40.37 40.99 39.71 32.44 28.48 28.04 31.76 25.34 22.54 23.18 25.38 23.86 24.16 24.14 24.19 22.76 21.87 23.33 22.56 20.78 15.86 13.93 13.34 14.78 16.95 19.63 20.79 20.20 20.37 20.61 19.37 17.17 16.29 19.43 21.87 22.10 21.26 20.04 18.72 18.37 18.82 18.65 18.69 17.79 16.97 16.45 16.82 16.96 17.16 16.14 13.51 11.85
39.69 37.72 39.55 39.26 34.90 33.67 30.03 27.55 26.06 25.84 26.31 24.49 26.45 25.71 22.31 22.20 19.09 17.72 17.46 20.98 17.40 16.40 13.62 15.69 15.82 16.94 16.04 18.22 19.28 19.63 19.67 20.81 22.18 18.15 17.53 18.96 18.56 20.06 20.15 22.20 23.24 21.79 18.41 16.72 16.74 16.22 15.72 15.47 16.43 15.96 13.34 10.86 10.62 10.89
36.93 39.65 36.78 36.78 30.49 30.37 28.64 30.36 27.28 28.23 26.05 25.96 25.78 26.46 22.06 15.16 14.67 16.60 19.64 14.79 14.47 14.48 16.76 17.72 15.05 13.01 15.91 15.74 16.37 17.26 16.72 19.51 20.72 20.02 20.68 21.35 18.90 17.58 19.49 17.86 17.77 16.48 16.82 16.65 17.12 15.30 15.64 16.11 14.88 13.81 11.34 10.26 11.00 9.98
38.95 38.05 32.73 31.39 24.82 23.40 23.95 31.37 25.67 27.67 21.93 22.35 24.70 20.78 18.03 16.07 20.93 22.38 12.26 16.56 16.80 17.29 16.09 15.69 13.73 15.42 15.24 15.66 19.29 18.81 18.60 19.84 18.96 17.90 18.30 18.29 18.36 18.07 17.16 16.96 19.38 16.02 15.08 15.55 15.99 13.68 12.35 12.84 13.00 10.74 10.25 8.40 6.41 3.47
35.03 27.20 23.47 22.82 23.64 20.53 24.37 21.24 26.66 25.12 23.17 21.10 18.60 14.12 15.22 17.16 20.68 13.27 10.76 14.59 16.87 18.98 18.86 17.98 18.66 17.41 18.06 17.74 13.59 14.17 19.55 17.62 15.84 16.19 19.04 16.34 13.98 13.82 15.98 15.89 16.29 15.86 15.79 16.46 15.41 13.01 11.17 6.87 11.06 11.96 10.43 9.22 6.91 6.82
18.05 15.70 19.29 15.56 23.55 17.17 14.49 15.55 18.12 20.15 13.48 16.20 12.52 11.32 13.23 21.16 10.35 7.54 8.61 15.12 17.31 16.20 17.58 18.91 20.32 18.47 13.66 9.95 10.90 11.83 16.86 18.26 15.52 12.06 14.24 17.92 15.70 12.08 11.96 11.93 11.23 12.03 16.19 12.07 8.86 4.50 4.41 3.13 2.07 2.96 4.67 1.32 6.47 3.15
9.60 12.64 15.78 17.54 17.22 17.75 18.95 13.52 13.76 13.00 11.95 7.98 9.69 16.16 17.37 10.39 5.11 6.06 14.26 13.69 11.99 18.47 17.20 17.38 16.81 14.42 14.09 16.78 13.55 11.61 11.87 15.24 17.51 12.03 11.69 13.47 12.63 10.09 10.85 10.86 7.97 6.40 10.86 9.91 5.02 0.42 -0.11 0.25 -1.94 -1.85 -3.12 -1.83 -0.81 -2.03
8.56 9.99 19.91 24.39 24.43 23.53 17.14 18.30 20.73 15.03 9.54 7.04 10.93 9.99 7.85 -0.19 -0.45 9.81 17.38 17.21 14.13 12.76 15.50 16.43 18.15 16.53 13.71 13.14 13.98 13.28 12.43 12.00 11.04 12.11 12.99 12.80 12.17 11.53 6.47 3.32 2.25 6.28 8.16 7.51 9.16 6.61 0.21 -3.15 -4.02 -1.15 -0.81 -5.95 -5.90 -2.36
16.20 17.76 8.76 14.72 14.35 18.72 9.84 10.09 8.30 6.62 8.50 16.35 12.61 2.42 1.14 2.14 6.75 14.17 15.13 16.03 14.89 17.06 16.40 16.08 16.09 15.95 14.90 14.50 13.74 11.54 8.66 7.89 7.11 8.61 9.89 9.38 7.85 3.32 1.82 0.75 0.84 8.52 -0.90 -1.05 0.57 3.45 5.76 2.22 -2.16 -2.86 -1.16 0.29 -0.01 -6.57
13.03 16.47 12.89 4.00 8.80 10.36 10.31 7.80 6.82 12.16 15.24 14.94 5.02 4.05 6.48 14.98 12.98 14.98 13.32 14.37 15.11 14.63 11.47 9.53 7.24 7.32 9.52 9.68 8.80 8.66 6.78 4.54 3.69 -2.60 -2.96 4.97 0.62 0.83 0.41 0.19 -0.69 7.14 3.20 -1.64 6.82 0.87 0.07 -3.72 -4.69 -1.72 -3.02 0.57 1.35 -0.65
11.93 18.72 9.14 4.29 2.06 5.99 12.61 12.55 8.09 9.47 13.71 12.54 13.70 14.41 13.99 14.45 14.77 13.93 14.26 17.04 17.99 15.65 10.02 10.56 15.04 11.62 9.00 9.75 3.52 -0.29 1.22 -3.18 -3.53 -1.90 -0.29 -0.99 -0.68 -0.36 1.83 4.26 2.83 -2.63 0.08 6.76 0.74 -1.86 4.56 -2.31 -0.45 -5.12 -4.15 -4.95 -4.73 -0.04
20.01 16.16 9.48 8.72 6.83 12.66 15.94 17.50 17.44 16.37 13.31 11.91 10.77 7.85 7.90 7.57 10.32 14.58 15.34 11.48 8.67 6.53 6.43 4.18 6.95 8.19 3.46 2.57 3.81 2.36 -3.89 -3.36 -5.01 -3.12 -1.90 -2.10 3.50 -2.18 -5.05 -5.02 -4.90 -3.28 0.46 -2.54 -4.58 -1.32 -3.01 -7.24 -3.64 -1.41 -5.37 -5.15 -6.79 -8.30
14.74 8.46 5.38 2.91 8.58 15.05 17.94 16.69 11.15 9.53 9.02 6.53 4.44 5.79 6.23 4.61 1.89 5.00 8.00 12.25 8.13 9.85 7.74 13.92 7.68 0.64 -0.66 -1.40 -3.18 -1.78 -0.86 -1.37 -1.90 -5.16 -3.93 1.25 -4.26 -4.62 -3.80 -2.52 -1.73 0.41 -5.67 -6.73 -3.65 -6.11 -5.34 -8.04 -9.56 -9.15 -9.56 -10.08 -10.12 -11.40
12.29 11.50 9.86 7.47 6.53 7.13 13.24 10.22 10.40 9.21 8.56 6.73 7.89 8.48 6.89 4.89 2.60 5.99 7.53 8.87 13.47 13.82 8.79 6.31 1.23 -0.04 0.08 2.46 0.29 -1.49 -4.31 -8.25 -5.89 1.73 -1.72 -2.81 -6.61 -3.71 -1.74 -4.82 -3.20 -6.10 -6.21 -7.12 -6.21 -7.42 -7.21 -7.48 -9.42 -9.61 -11.37 -12.99 -13.33 -14.65
MSLP
1010.78 1010.43 1010.04 1009.60 1009.10 1008.66 1008.18 1007.82 1007.58 1007.30 1007.18 1007.18 1007.41 1008.00 1008.53 1009.08 1009.68 1010.71 1011.32 1012.20 1012.72 1012.37 1011.46 1010.83 1010.54 1010.33 1010.24 1010.34 1010.55 1010.30 1010.31 1010.69 1010.76 1010.68 1010.55 1009.78 1008.94 1007.62 1006.85 1006.12 1005.93 1006.61 1007.61 1008.17 1008.48 1008.39 1007.74 1006.24 1005.68 1006.36 1007.18 1006.62 1006.67 1006.55
1009.87 1009.51 1009.05 1008.56 1008.07 1007.57 1007.16 1006.82 1006.56 1006.35 1006.33 1006.31 1006.61 1007.13 1007.73 1008.38 1009.09 1010.04 1010.99 1011.33 1012.25 1012.39 1011.78 1011.18 1010.32 1009.94 1009.86 1009.75 1010.53 1010.04 1010.21 1010.32 1010.16 1010.15 1009.91 1009.39 1008.91 1008.12 1007.66 1006.58 1006.32 1006.75 1006.42 1007.01 1007.40 1007.43 1007.88 1007.31 1007.38 1007.40 1007.38 1007.52 1007.41 1007.19
1008.90 1008.43 1007.98 1007.46 1006.96 1006.43 1006.02 1005.70 1005.42 1005.26 1005.27 1005.44 1005.75 1006.30 1006.85 1007.63 1008.41 1009.29 1010.26 1010.87 1011.75 1011.91 1011.59 1010.95 1009.32 1008.56 1008.74 1008.54 1009.18 1009.90 1010.07 1009.91 1009.09 1009.02 1009.45 1009.39 1009.04 1008.23 1007.98 1007.16 1006.71 1006.72 1006.91 1007.21 1007.21 1007.56 1007.80 1007.91 1007.97 1007.97 1007.87 1007.77 1007.90 1008.09
1007.87 1007.39 1006.84 1006.26 1005.69 1005.20 1004.84 1004.49 1004.23 1004.15 1004.24 1004.39 1004.75 1005.29 1006.02 1006.84 1007.68 1008.71 1009.52 1010.09 1010.90 1011.21 1010.91 1008.74 1007.30 1007.28 1006.68 1007.24 1008.11 1008.80 1008.32 1008.31 1008.60 1008.96 1009.43 1009.54 1009.40 1008.60 1008.51 1008.08 1007.74 1008.39 1008.32 1008.12 1008.12 1008.15 1008.19 1008.55 1008.92 1008.88 1008.81 1008.54 1008.47 1008.86
1006.83 1006.28 1005.63 1004.99 1004.45 1003.96 1003.49 1003.14 1002.93 1002.85 1003.04 1003.37 1003.77 1004.30 1005.15 1006.03 1007.08 1008.25 1009.20 1009.54 1009.82 1010.18 1009.65 1008.40 1006.86 1006.02 1005.73 1006.46 1007.18 1007.75 1008.21 1008.56 1008.94 1009.54 1009.73 1009.64 1008.84 1008.85 1008.80 1008.43 1009.22 1009.52 1009.76 1009.57 1009.81 1009.82 1008.79 1009.50 1009.74 1009.33 1009.32 1009.25 1009.19 1009.48
1005.77 1005.14 1004.48 1003.89 1003.17 1002.71 1002.24 1001.51 1001.06 1001.01 1001.31 1001.93 1002.66 1003.33 1004.24 1005.36 1006.61 1008.06 1008.82 1009.40 1009.26 1009.59 1010.09 1008.68 1007.04 1005.78 1005.38 1005.93 1006.63 1007.28 1007.81 1008.38 1008.94 1009.46 1009.78 1009.18 1008.40 1008.84 1009.07 1009.77 1011.01 1010.89 1010.93 1011.07 1011.11 1010.35 1010.10 1010.19 1010.36 1010.32 1010.14 1010.26 1010.33 1010.61
1004.73 1004.14 1003.56 1002.91 1002.32 1001.70 1000.90 999.87 999.10 998.91 999.34 1000.34 1001.48 1002.49 1003.46 1004.67 1005.91 1007.08 1007.17 1007.13 1008.10 1009.48 1009.45 1008.75 1007.23 1005.67 1005.31 1005.95 1006.67 1007.20 1007.57 1008.40 1008.99 1009.74 1009.75 1009.45 1009.13 1009.24 1009.80 1011.12 1012.35 1012.55 1012.35 1011.93 1011.59 1011.21 1011.12 1011.12 1011.29 1011.48 1011.68 1011.40 1011.55 1012.09
1003.86 1003.35 1002.80 1002.30 1001.71 1000.89 999.65 997.95 996.63 996.68 997.79 999.33 1000.76 1001.93 1003.05 1004.29 1005.83 1006.72 1006.40 1006.35 1007.65 1008.93 1009.05 1008.59 1007.12 1006.46 1005.46 1006.19 1006.87 1007.26 1007.97 1008.54 1009.18 1009.47 1009.48 1009.27 1009.43 1009.99 1011.59 1012.89 1013.34 1013.70 1013.39 1013.40 1012.90 1012.42 1012.24 1012.08 1012.16 1012.55 1012.72 1012.79 1013.01 1013.57
1003.20 1002.66 1002.13 1001.79 1001.38 1000.40 999.19 997.39 995.43 995.66 997.53 999.28 1000.71 1002.09 1003.60 1004.80 1005.58 1006.06 1006.43 1006.98 1007.38 1008.15 1008.13 1007.90 1007.27 1006.63 1006.14 1006.52 1007.02 1007.59 1008.14 1008.83 1009.00 1008.94 1008.90 1009.07 1010.57 1012.31 1013.48 1014.12 1014.52 1014.78 1014.84 1014.80 1014.36 1014.19 1013.81 1013.78 1013.80 1013.84 1014.14 1014.56 1014.80 1015.18
1002.65 1002.31 1001.89 1001.58 1001.19 1000.56 999.80 998.75 998.17 998.30 998.74 1000.29 1001.54 1003.00 1004.37 1004.35 1004.88 1006.18 1007.28 1007.75 1008.05 1007.89 1007.51 1007.23 1006.76 1007.10 1007.06 1007.07 1007.49 1007.96 1008.31 1008.71 1008.97 1008.85 1008.82 1010.47 1012.92 1014.32 1014.83 1015.30 1015.63 1015.98 1016.12 1016.05 1015.79 1015.79 1015.84 1015.79 1015.67 1015.64 1015.74 1015.98 1016.31 1016.67
1002.37 1002.15 1001.78 1001.44 1001.19 1000.88 1000.35 1000.16 999.96 1000.00 1000.22 1001.03 1002.29 1002.98 1003.62 1003.94 1005.40 1006.60 1007.27 1007.60 1007.97 1007.88 1007.22 1006.67 1006.33 1006.91 1007.22 1007.06 1007.51 1007.65 1008.01 1008.54 1008.77 1008.76 1009.53 1011.55 1013.87 1015.33 1016.03 1016.55 1016.97 1017.20 1017.33 1017.50 1017.56 1017.68 1017.70 1017.58 1017.31 1017.28 1017.50 1017.66 1017.88 1018.08
1002.27 1002.04 1001.61 1001.19 1001.03 1000.81 1000.64 1000.60 1000.61 1000.82 1000.83 1001.20 1002.27 1003.59 1004.25 1005.08 1005.84 1006.58 1007.01 1007.31 1007.29 1006.99 1006.85 1006.79 1006.73 1006.91 1007.50 1007.52 1007.55 1007.80 1008.05 1008.63 1008.96 1009.04 1010.44 1013.36 1015.75 1016.52 1016.95 1017.47 1017.99 1018.28 1018.45 1018.66 1018.82 1018.98 1019.13 1019.01 1018.81 1018.83 1018.93 1019.07 1019.29 1019.51
1002.09 1001.72 1001.44 1001.20 1001.09 1000.78 1000.51 1000.91 1001.27 1001.14 1001.18 1001.91 1002.77 1004.34 1004.92 1005.75 1006.11 1006.81 1007.24 1007.34 1007.58 1007.57 1007.54 1007.34 1007.25 1007.47 1007.86 1008.17 1008.17 1008.08 1008.57 1009.22 1009.42 1010.68 1013.27 1015.56 1016.88 1017.52 1017.97 1018.38 1018.82 1019.11 1019.34 1019.58 1019.87 1020.01 1020.15 1020.18 1020.10 1020.11 1020.34 1020.54 1020.62 1020.79
1001.96 1001.86 1001.66 1001.60 1001.52 1001.44 1001.39 1001.53 1001.50 1001.52 1001.77 1003.03 1004.24 1006.03 1006.72 1007.39 1008.26 1008.66 1008.60 1008.64 1009.00 1008.75 1008.44 1008.07 1008.03 1008.23 1008.52 1008.81 1008.73 1008.83 1009.49 1009.88 1010.86 1013.05 1015.49 1017.08 1018.00 1018.62 1018.91 1019.25 1019.58 1019.99 1020.27 1020.57 1020.87 1021.05 1021.11 1021.18 1021.34 1021.44 1021.53 1021.68 1021.73 1021.93
1001.97 1002.00 1001.90 1001.97 1001.95 1001.82 1001.67 1001.58 1001.56 1001.77 1003.63 1005.18 1006.08 1007.78 1008.83 1009.45 1009.71 1009.86 1009.47 1009.52 1009.77 1009.45 1009.12 1008.83 1008.82 1008.96 1009.27 1009.56 1009.86 1010.30 1010.92 1012.28 1013.90 1015.67 1017.18 1018.33 1018.98 1019.43 1019.79 1020.09 1020.42 1020.75 1021.16 1021.44 1021.60 1021.89 1022.06 1022.20 1022.33 1022.48 1022.64 1022.69 1022.78 1022.96
1001.84 1002.02 1002.43 1002.26 1002.03 1001.84 1001.73 1001.99 1002.34 1003.39 1005.93 1007.49 1008.94 1009.41 1009.79 1010.18 1010.79 1010.73 1010.64 1010.48 1010.29 1009.96 1009.66 1009.43 1009.40 1009.88 1010.52 1010.99 1011.69 1012.88 1013.28 1015.12 1016.71 1017.56 1018.68 1019.38 1020.00 1020.31 1020.65 1020.97 1021.15 1021.33 1021.64 1021.99 1022.26 1022.53 1022.77 1022.93 1023.11 1023.33 1023.36 1023.49 1023.63 1023.85
1001.88 1002.18 1002.45 1002.27 1002.08 1001.85 1001.76 1002.57 1004.12 1006.09 1007.80 1009.33 1010.80 1011.03 1010.93 1011.39 1011.76 1011.70 1011.35 1011.05 1010.53 1010.16 1009.97 1009.99 1010.49 1011.28 1011.66 1012.73 1014.32 1015.33 1016.37 1017.50 1018.43 1019.17 1019.78 1020.16 1020.68 1021.05 1021.28 1021.44 1021.66 1021.96 1022.28 1022.57 1022.80 1023.08 1023.30 1023.35 1023.44 1023.70 1023.98 1024.38 1024.55 1024.84
1001.91 1002.41 1002.43 1002.49 1002.39 1002.10 1002.77 1004.07 1006.12 1008.08 1009.93 1011.00 1011.53 1012.15 1012.22 1012.30 1012.33 1012.18 1011.86 1011.46 1010.72 1010.61 1010.97 1011.67 1012.34 1013.44 1014.54 1015.30 1016.61 1017.75 1018.41 1019.01 1019.53 1020.14 1020.71 1021.14 1021.29 1021.44 1021.62 1021.91 1022.07 1022.33 1022.65 1022.98 1023.16 1023.46 1023.78 1023.88 1024.01 1024.23 1024.48 1024.79 1025.11 1025.39
1002.03 1002.45 1002.67 1002.75 1002.78 1003.15 1004.67 1005.97 1007.18 1009.25 1011.03 1011.72 1012.29 1012.56 1012.70 1012.90 1012.93 1012.75 1012.30 1011.82 1011.57 1011.52 1012.30 1014.01 1015.53 1016.68 1017.37 1017.61 1018.16 1018.78 1019.25 1019.77 1020.41 1020.96 1021.35 1021.46 1021.66 1021.83 1022.03 1022.23 1022.43 1022.62 1022.88 1023.18 1023.41 1023.53 1023.62 1023.69 1023.91 1024.18 1024.48 1024.79 1025.27 1025.73
1002.49 1002.82 1002.98 1003.01 1003.08 1003.92 1005.61 1006.99 1007.76 1009.44 1011.13 1012.29 1012.58 1012.94 1013.13 1013.55 1013.81 1013.79 1013.71 1013.36 1013.20 1013.99 1015.81 1017.36 1018.84 1019.65 1019.53 1019.49 1019.63 1019.90 1019.97 1020.16 1020.63 1021.23 1021.68 1021.83 1022.02 1022.17 1022.27 1022.44 1022.67 1022.93 1023.23 1023.48 1023.65 1023.83 1024.08 1024.35 1024.54 1024.73 1024.92 1025.22 1025.70 1026.19
1002.78 1003.16 1003.10 1003.07 1003.73 1004.66 1006.35 1007.72 1008.80 1010.04 1011.21 1011.89 1012.55 1012.82 1013.80 1014.22 1014.52 1014.74 1014.83 1015.00 1015.28 1017.22 1018.99 1020.19 1020.72 1021.07 1020.94 1020.80 1020.71 1020.77 1020.79 1020.60 1020.89 1021.29 1021.74 1022.11 1022.29 1022.40 1022.54 1022.53 1022.53 1022.93 1023.38 1023.72 1024.02 1024.35 1024.59 1024.88 1025.14 1025.45 1025.78 1026.22 1026.53 1026.76
1003.16 1003.15 1003.65 1003.93 1005.17 1006.41 1007.64 1008.19 1008.91 1009.76 1010.83 1011.77 1012.36 1012.74 1013.72 1014.49 1015.18 1015.78 1016.57 1017.13 1019.17 1020.67 1020.84 1021.23 1021.64 1021.78 1021.86 1021.86 1021.82 1021.72 1021.74 1021.76 1021.90 1022.10 1022.27 1022.48 1022.80 1022.99 1023.08 1023.23 1023.38 1023.71 1023.97 1024.22 1024.55 1024.94 1025.23 1025.45 1025.71 1026.05 1026.42 1026.82 1027.01 1027.34
1003.50 1003.72 1004.40 1005.24 1006.61 1007.78 1009.34 1008.95 1009.34 1010.01 1011.04 1011.95 1012.35 1013.23 1014.35 1015.18 1015.73 1016.50 1018.37 1020.09 1021.30 1021.70 1021.75 1021.94 1022.11 1022.30 1022.47 1022.61 1022.53 1022.56 1022.46 1022.61 1022.77 1022.93 1023.12 1023.35 1023.56 1023.72 1023.94 1024.12 1024.02 1024.36 1024.72 1025.07 1025.32 1025.67 1025.92 1026.14 1026.36 1026.63 1027.00 1027.30 1027.53 1027.81
1004.63 1005.80 1006.45 1007.07 1007.87 1009.21 1009.53 1009.74 1009.90 1010.71 1011.46 1012.33 1013.39 1014.56 1015.29 1015.79 1016.52 1018.07 1020.05 1021.27 1021.91 1021.91 1022.15 1022.30 1022.35 1022.73 1023.01 1023.26 1023.57 1023.63 1023.37 1023.25 1023.54 1023.73 1023.71 1023.98 1024.30 1024.59 1024.67 1024.90 1025.06 1025.18 1025.33 1025.63 1025.96 1026.32 1026.57 1026.77 1026.92 1027.13 1027.38 1027.66 1027.95 1028.22
1006.32 1008.61 1008.62 1008.69 1008.89 1009.72 1010.33 1010.82 1011.17 1011.72 1012.90 1013.56 1014.54 1015.55 1016.03 1016.13 1017.59 1019.33 1020.82 1021.75 1022.13 1022.24 1022.41 1022.24 1022.43 1022.78 1023.28 1023.82 1024.06 1024.29 1024.17 1024.13 1024.16 1024.54 1024.81 1024.70 1024.82 1025.03 1025.43 1025.65 1025.90 1026.04 1025.86 1026.23 1026.73 1026.97 1027.26 1027.45 1027.62 1027.85 1028.02 1028.25 1028.57 1028.80
1008.77 1010.09 1009.94 1009.75 1009.86 1010.19 1010.89 1011.76 1012.11 1012.98 1013.85 1014.99 1015.83 1016.32 1016.56 1017.52 1019.21 1020.63 1021.27 1021.98 1022.51 1022.69 1022.95 1022.93 1022.91 1023.33 1023.97 1024.27 1024.78 1025.10 1025.23 1024.93 1024.72 1025.19 1025.64 1025.76 1025.90 1026.15 1026.23 1026.57 1026.86 1027.08 1026.84 1026.84 1027.11 1027.34 1027.67 1027.97 1028.30 1028.54 1028.80 1028.94 1029.12 1029.25
1010.21 1010.91 1010.92 1010.60 1010.55 1011.00 1012.02 1012.69 1013.15 1013.88 1014.78 1015.79 1016.56 1017.03 1017.70 1019.54 1020.82 1021.72 1022.01 1022.32 1022.89 1023.18 1023.24 1023.28 1023.33 1023.79 1024.47 1025.06 1025.45 1025.74 1025.76 1025.72 1025.89 1026.10 1026.35 1026.57 1026.84 1026.98 1027.22 1027.62 1027.78 1028.16 1027.85 1027.64 1027.56 1027.54 1027.85 1028.17 1028.45 1028.78 1029.08 1029.27 1029.51 1029.71
1011.26 1011.67 1012.33 1012.67 1012.70 1012.85 1013.49 1014.24 1014.79 1015.42 1016.00 1016.06 1017.05 1018.52 1019.53 1020.21 1021.37 1021.88 1022.40 1022.98 1023.19 1023.58 1024.02 1024.39 1024.62 1024.83 1025.18 1025.54 1025.95 1026.33 1026.61 1026.49 1026.53 1026.71 1027.00 1027.32 1027.56 1027.76 1027.89 1028.09 1028.34 1027.91 1028.61 1028.56 1028.16 1027.94 1027.96 1028.14 1028.59 1028.90 1029.20 1029.39 1029.70 1029.27
1012.28 1012.99 1013.59 1014.78 1014.72 1015.30 1015.84 1016.01 1016.49 1016.77 1016.83 1016.85 1018.20 1019.77 1020.71 1021.35 1021.93 1022.56 1023.06 1023.26 1023.59 1024.16 1024.84 1025.28 1025.71 1025.91 1026.17 1026.35 1026.66 1026.94 1027.20 1027.54 1027.53 1027.78 1027.72 1028.19 1028.71 1028.84 1028.45 1028.57 1028.73 1028.78 1028.94 1028.79 1028.18 1028.07 1027.94 1028.07 1028.39 1029.03 1029.29 1029.42 1029.36 1029.42
1013.14 1013.51 1014.72 1015.95 1016.73 1017.27 1017.21 1016.98 1017.28 1017.52 1017.64 1018.16 1019.28 1020.82 1021.70 1022.67 1023.11 1023.03 1023.46 1023.76 1024.18 1024.73 1025.18 1025.48 1025.82 1026.30 1026.80 1027.25 1027.92 1028.23 1028.35 1028.36 1028.67 1028.73 1028.83 1029.14 1029.19 1029.02 1029.02 1029.15 1029.24 1029.16 1029.10 1029.00 1028.83 1028.54 1028.44 1028.60 1028.54 1029.02 1029.51 1029.52 1029.80 1029.92
1012.99 1014.02 1015.49 1016.90 1018.00 1018.41 1018.20 1018.12 1018.16 1018.43 1018.83 1019.65 1020.49 1021.40 1022.30 1023.48 1024.14 1024.31 1024.38 1024.62 1024.78 1025.04 1025.54 1026.13 1026.53 1026.78 1027.28 1027.82 1028.19 1028.61 1029.31 1029.27 1029.15 1029.12 1029.03 1029.10 1029.33 1029.47 1029.56 1029.61 1029.60 1029.46 1029.42 1029.37 1029.27 1029.27 1029.36 1029.71 1029.97 1029.86 1029.95 1030.08 1030.32 1030.49
1013.85 1014.78 1016.14 1017.65 1018.76 1018.71 1018.49 1018.38 1018.75 1019.36 1020.11 1020.74 1021.52 1022.03 1022.95 1023.65 1024.61 1025.03 1024.97 1024.92 1025.13 1025.57 1025.81 1026.11 1027.15 1027.93 1027.82 1027.94 1028.17 1028.46 1028.91 1029.51 1029.85 1030.04 1029.97 1030.00 1030.10 1029.98 1029.78 1029.55 1029.49 1029.49 1029.98 1029.92 1029.85 1029.78 1029.88 1030.56 1030.57 1030.65 1030.72 1030.87 1031.03 1031.20
1015.29 1015.77 1016.58 1017.63 1018.57 1018.75 1018.49 1018.35 1019.03 1019.94 1020.43 1021.36 1022.01 1022.38 1023.06 1023.47 1024.67 1025.28 1025.09 1025.12 1025.10 1025.34 1026.21 1026.81 1027.14 1027.51 1027.92 1028.19 1028.61 1029.14 1029.67 1030.19 1030.09 1029.85 1030.11 1030.22 1030.40 1030.20 1030.14 1030.27 1030.11 1030.26 1030.55 1030.39 1030.29 1030.27 1030.60 1031.11 1031.24 1031.36 1031.44 1031.54 1031.71 1031.90
Wind_Speed
22 23 23 23 22 23 22 20 20 20 17 17 19 17 17 17 19 12 4 12 7 3 5 6 9 10 7 4 3 3 4 1 1 2 3 4 3 4 3 9 7 5 6 4 3 2 7 13 7 6 4 8 9 7
22 23 22 22 22 24 21 21 20 19 16 15 18 18 18 18 20 18 3 9 10 4 3 4 11 14 9 4 4 3 1 3 5 2 3 2 2 2 2 3 4 1 6 5 7 4 3 9 12 8 9 5 7 8
23 22 23 22 23 23 21 22 21 20 17 15 18 20 19 20 21 18 6 7 4 2 6 6 10 14 12 11 11 4 1 5 3 3 1 2 1 1 2 3 2 3 7 2 2 9 11 11 9 7 8 8 8 9
23 23 23 23 24 22 22 23 19 17 17 16 18 21 22 21 21 20 7 6 4 2 3 7 11 9 9 8 11 14 5 5 1 3 2 0 1 4 2 5 3 4 5 5 5 13 13 13 10 7 8 8 7 10
23 23 23 24 21 23 22 21 21 20 19 18 18 20 23 23 22 13 6 6 8 4 3 4 7 7 7 10 9 13 6 2 2 2 2 2 2 2 3 1 3 5 4 4 3 8 9 8 8 12 10 11 9 11
23 22 22 21 21 17 21 24 24 24 24 22 20 20 23 23 22 6 2 6 10 5 3 4 3 6 6 8 7 6 5 4 3 3 2 3 5 1 1 3 6 10 9 11 4 7 11 8 11 11 11 12 12 13
21 21 18 16 13 18 22 25 22 21 22 22 22 21 24 24 13 5 4 5 18 6 3 4 3 6 8 6 4 3 3 3 3 2 3 1 2 3 1 3 5 8 10 12 11 10 8 8 6 11 11 11 14 13
20 16 16 15 17 21 25 27 18 18 21 20 22 21 23 25 15 4 2 8 16 4 3 3 3 2 5 4 3 2 3 3 4 3 3 2 2 2 3 6 9 8 6 12 13 12 11 10 11 11 12 11 12 11
13 14 13 12 13 19 24 15 13 19 25 24 23 21 8 4 4 4 3 19 3 4 3 3 2 3 3 2 3 3 3 2 2 3 3 4 3 5 5 6 8 9 8 9 10 12 13 12 11 10 11 11 10 10
10 8 9 5 10 15 15 22 22 20 26 28 7 5 4 4 30 15 4 3 1 3 2 3 1 1 0 1 2 3 2 3 3 4 1 4 3 4 7 8 8 8 10 9 7 10 9 9 9 8 10 9 9 8
4 7 8 7 5 8 9 10 9 13 7 3 4 3 10 10 5 2 3 3 3 4 3 4 3 3 2 2 3 2 3 3 2 3 5 3 3 4 9 10 9 9 9 10 8 10 10 9 8 8 9 9 8 8
4 6 4 4 5 6 8 7 2 4 2 7 8 4 3 3 3 4 4 3 4 4 3 2 1 3 2 2 1 1 3 2 3 2 3 3 4 7 8 10 10 8 9 10 10 10 9 10 9 8 8 8 8 8
2 7 9 8 9 10 14 12 10 21 7 3 5 4 0 1 3 3 6 2 4 3 2 1 2 3 2 3 1 1 4 4 3 4 3 3 6 7 7 7 9 8 8 9 10 10 10 9 10 10 9 8 9 10
6 7 9 11 11 12 10 6 3 2 5 4 4 6 4 4 4 4 3 2 2 3 4 2 3 2 1 1 1 2 2 3 3 4 3 4 6 7 6 7 7 7 7 8 7 6 8 8 8 8 8 7 9 10
6 7 7 10 8 7 8 11 12 5 5 6 6 5 4 1 4 4 3 3 2 2 2 1 2 1 2 3 2 1 2 4 4 3 3 5 7 6 6 6 6 6 5 5 4 5 5 7 9 10 10 10 10 10
6 6 3 5 6 5 5 5 4 4 5 5 7 3 2 4 4 3 3 2 2 3 1 1 2 3 3 3 5 4 3 4 3 4 5 5 5 5 4 5 5 5 5 5 5 6 7 7 9 9 10 10 10 10
7 3 6 5 6 11 8 5 5 7 5 5 4 4 5 4 4 2 3 3 2 2 2 2 4 4 3 4 4 5 4 5 5 5 4 5 5 4 4 5 5 5 6 6 6 6 6 5 6 9 10 8 9 9
3 4 7 3 6 4 4 5 5 5 7 5 4 3 3 2 2 3 3 5 4 2 2 4 3 6 5 3 3 3 4 6 6 5 4 5 5 5 5 5 4 4 4 4 4 4 5 6 7 6 8 7 7 7
6 5 5 0 4 4 4 5 5 6 5 2 2 2 2 2 3 5 5 4 4 5 5 4 6 4 3 3 4 4 4 3 4 4 3 3 3 4 5 5 6 6 6 5 5 4 5 5 4 3 4 4 5 5
13 8 3 1 2 4 5 3 4 5 3 2 2 4 2 4 4 5 8 7 7 5 6 6 5 4 4 7 7 6 2 4 6 5 2 2 3 4 4 4 3 4 4 4 4 5 5 5 5 6 5 5 5 5
4 1 2 1 4 7 5 3 4 4 4 3 3 2 4 6 7 6 4 6 7 5 5 4 5 4 4 5 4 5 6 7 5 3 3 4 2 3 3 4 4 4 4 3 4 5 5 4 5 5 6 5 4 4
2 1 3 6 5 5 5 5 5 4 4 4 3 2 3 3 3 4 3 8 5 4 4 4 3 2 5 6 4 4 3 7 7 6 7 4 4 3 4 3 4 4 4 4 4 4 4 3 4 4 4 4 3 2
3 5 4 4 6 6 1 1 3 3 4 3 2 3 3 3 3 4 5 4 3 2 2 3 3 3 4 3 5 6 6 6 5 4 5 5 5 4 5 6 4 4 4 4 4 4 3 4 5 5 4 3 3 2
8 5 4 3 5 4 3 3 3 3 4 3 3 4 3 1 3 5 5 3 1 2 2 2 3 4 4 6 4 4 4 3 4 5 4 4 3 3 3 3 4 4 3 4 4 4 3 3 3 3 3 3 2 3
9 8 5 5 2 5 4 3 3 4 3 3 4 3 0 2 4 4 3 2 2 2 1 2 4 3 4 2 2 3 7 5 3 4 5 5 3 3 3 3 3 3 4 4 4 4 2 3 4 4 4 4 5 4
8 4 5 2 2 5 3 4 3 3 4 4 3 1 1 4 5 4 2 3 2 3 3 3 2 5 6 5 5 4 4 5 2 5 3 5 5 4 3 5 3 3 4 3 3 4 4 4 4 5 3 4 5 4
5 3 3 3 1 4 4 4 4 5 4 4 3 3 4 5 3 2 3 2 3 1 2 3 5 6 5 5 5 3 3 4 4 4 3 5 6 5 4 3 3 1 3 5 6 3 5 4 3 3 4 1 2 4
3 4 4 4 5 5 4 4 4 3 2 1 5 5 4 4 3 2 3 2 4 5 6 6 7 6 5 4 3 2 2 2 3 4 4 4 3 2 3 3 3 5 3 4 4 6 6 4 3 2 3 3 2 1
4 2 5 6 6 6 6 3 2 2 2 1 5 3 3 3 2 5 3 3 4 5 4 4 2 3 4 4 5 4 4 4 4 2 1 4 2 3 2 3 3 3 2 3 5 5 6 4 4 4 4 3 2 2
1 3 5 5 5 4 3 2 2 2 4 4 5 9 9 6 3 2 3 2 4 5 3 3 2 4 3 5 3 4 4 3 3 4 3 3 3 1 3 4 3 3 3 3 2 2 6 4 4 3 3 3 2 2
3 3 5 5 4 2 6 9 10 10 6 7 6 7 5 4 3 4 4 3 3 4 4 3 4 4 5 4 3 4 1 3 3 4 4 3 4 3 3 3 2 3 3 4 4 3 2 3 3 3 2 3 2 3
3 3 5 6 3 1 3 2 3 4 2 3 2 3 2 4 3 1 3 2 1 3 2 6 6 2 2 3 3 4 6 3 4 3 6 4 3 4 3 2 2 3 4 4 4 2 3 3 3 4 3 4 3 3
5 7 5 5 3 4 4 3 3 3 4 3 2 2 3 4 4 2 2 2 2 6 7 5 3 4 5 6 6 5 5 4 5 7 6 6 6 6 4 3 4 4 5 3 3 3 4 5 4 4 4 3 3 4
Wind_Direction
286 289 293 292 291 293 291 284 282 281 266 262 228 220 215 210 198 175 182 184 199 247 261 259 253 254 271 264 233 268 58 78 4 163 183 236 238 262 323 228 161 154 166 184 189 234 255 340 71 51 269 21 27 4
284 289 291 291 292 292 286 284 283 275 264 255 221 215 209 204 195 177 195 173 188 225 300 325 275 268 267 244 265 300 91 151 210 178 237 300 328 343 159 298 98 98 191 172 172 181 119 53 90 37 47 54 7 4
285 290 291 289 289 286 282 283 277 268 258 240 218 214 206 202 194 187 182 152 169 178 264 251 248 252 233 226 204 152 255 261 218 184 95 249 294 30 321 286 98 48 9 323 73 130 109 106 89 54 33 38 20 22
289 290 289 289 288 283 284 279 272 259 251 236 220 210 204 199 194 184 184 156 161 163 226 268 229 229 213 208 158 229 204 196 160 88 97 14 278 26 308 278 92 12 352 313 93 97 93 60 52 30 35 24 40 40
289 289 291 290 286 285 280 272 262 250 237 228 222 208 201 194 194 179 182 178 190 182 247 267 282 262 199 191 194 196 219 162 102 70 81 249 271 112 195 268 52 10 27 335 64 328 90 84 49 31 28 12 19 55
290 292 290 288 289 288 291 284 265 247 236 224 214 206 194 188 178 143 140 209 203 204 300 292 301 279 193 167 184 202 192 161 106 116 236 275 199 229 312 98 50 31 72 51 37 322 62 87 64 33 28 2 62 56
291 291 293 296 297 303 304 304 288 248 227 208 197 195 184 177 160 162 180 184 175 173 240 279 288 274 163 147 174 152 104 108 93 165 202 243 321 29 216 88 65 23 3 30 10 355 50 38 64 45 33 15 58 61
293 297 299 298 292 307 318 311 276 220 199 177 174 176 168 163 127 212 296 144 152 159 252 248 240 273 149 160 135 100 119 107 152 179 227 208 146 87 90 88 60 27 3 32 358 353 27 46 50 53 44 24 49 49
294 304 300 291 308 330 332 356 53 128 136 146 149 136 97 84 126 139 290 145 180 161 208 194 222 186 335 58 99 97 108 136 312 184 221 109 65 44 65 70 58 38 27 4 352 30 28 34 24 34 57 43 47 49
309 327 337 356 350 350 358 63 76 104 113 107 85 73 118 155 110 99 62 79 108 267 228 243 155 143 330 52 106 117 138 149 186 219 71 69 80 77 76 70 61 47 40 26 19 25 21 24 16 59 59 55 53 59
10 333 313 329 52 3 340 16 58 76 64 60 90 96 107 94 71 103 115 138 150 217 217 228 175 143 135 97 143 179 170 160 155 215 176 102 91 77 85 76 59 47 48 42 46 51 40 29 36 69 69 65 61 57
12 316 317 349 43 26 185 222 268 1 6 105 104 95 77 93 137 143 167 178 183 210 19 75 10 99 88 83 94 261 127 73 191 132 127 87 89 70 73 73 67 55 52 55 52 56 49 36 50 67 74 74 75 81
8 46 39 46 42 32 68 175 235 119 93 99 63 68 242 344 99 112 164 207 102 23 30 19 59 97 92 46 21 260 145 177 120 59 78 70 99 71 59 73 66 56 60 64 60 63 64 54 46 55 60 54 60 64
96 78 59 47 45 49 67 88 181 202 66 74 78 45 52 36 55 33 21 35 42 22 17 359 60 78 59 102 329 98 19 125 153 103 87 94 90 80 69 76 81 69 67 71 69 58 60 62 63 60 62 64 76 75
137 119 71 26 27 37 52 70 57 53 55 53 31 54 67 90 53 20 352 82 37 311 320 103 89 61 32 91 13 115 40 65 35 70 79 85 83 78 66 67 80 77 75 78 66 75 78 77 76 71 65 69 71 71
180 139 66 329 354 37 83 93 47 67 64 60 37 50 1 90 39 10 8 14 8 326 286 274 109 82 48 50 49 20 11 49 40 85 103 89 77 80 78 73 63 80 79 76 75 79 80 81 87 85 74 66 68 78
172 87 185 234 95 54 62 75 51 51 61 53 45 4 42 61 51 353 344 327 274 249 50 52 61 28 101 70 55 14 34 98 99 82 72 89 104 86 79 87 81 79 74 72 85 101 103 104 97 91 85 74 74 69
80 159 192 246 350 28 39 52 76 73 64 38 71 53 51 15 25 8 342 350 5 47 48 57 54 40 32 49 80 95 77 72 68 84 80 67 66 72 89 92 86 94 94 98 109 116 115 108 103 106 112 109 96 83
133 143 171 38 28 77 69 41 74 84 69 109 106 85 46 53 28 11 355 352 45 35 63 51 58 45 23 48 107 109 111 112 110 94 82 76 90 93 87 79 73 72 91 97 94 78 75 80 105 120 123 122 120 126
98 122 167 285 292 86 83 67 76 83 87 110 70 52 46 54 48 33 31 24 43 58 48 44 47 18 29 47 52 48 52 124 130 129 129 108 119 145 144 129 126 125 108 104 96 96 87 76 63 61 68 83 95 92
138 52 242 206 62 49 84 92 68 108 137 97 162 157 108 81 50 34 42 8 46 42 68 75 81 58 31 38 41 56 41 45 86 90 108 104 55 81 62 46 92 98 106 100 94 80 72 77 80 83 81 77 74 69
60 0 74 26 73 59 66 15 107 130 86 133 144 82 95 60 48 38 56 37 64 29 20 76 82 74 52 38 15 31 53 60 59 61 46 67 68 46 50 61 77 69 59 65 82 80 77 92 103 96 91 89 80 75
3 39 39 63 72 65 144 196 91 127 104 128 105 74 54 51 81 111 72 56 74 29 74 81 80 78 89 47 49 33 41 59 58 64 71 66 60 57 61 41 47 85 82 70 86 84 71 92 103 110 113 105 98 78
29 53 47 64 73 95 55 32 57 65 58 72 75 66 44 81 119 71 76 73 121 161 120 175 138 121 93 67 54 30 6 75 75 44 45 84 83 59 73 73 58 44 67 88 90 91 79 58 30 88 110 118 124 110
71 341 63 39 72 85 84 62 41 65 91 89 77 62 353 60 72 78 97 129 102 73 65 59 73 89 112 126 77 34 24 19 77 81 23 28 33 78 86 75 58 42 14 81 78 86 65 59 55 54 51 72 96 112
73 318 42 48 333 96 135 112 111 107 90 71 82 153 68 71 69 77 85 141 116 79 57 40 99 105 71 64 77 50 13 354 59 81 35 39 41 38 25 140 89 4 15 34 125 118 99 89 97 101 89 79 58 77
79 36 356 316 24 78 71 49 47 76 87 109 159 122 90 77 95 121 100 63 96 77 67 29 49 90 103 92 78 63 50 26 67 87 78 64 58 56 66 86 78 312 5 33 28 63 136 139 143 156 152 148 115 112
69 44 90 339 47 20 85 57 59 83 97 351 61 54 99 123 136 108 107 119 100 86 78 65 55 63 72 75 85 91 63 51 42 74 69 57 59 79 75 65 58 72 73 60 57 47 40 57 79 90 104 137 144 99
61 74 76 32 46 43 27 49 88 30 317 71 106 94 98 60 58 104 111 117 107 104 100 94 37 74 77 68 60 50 39 34 58 57 325 130 71 332 17 59 51 27 73 65 62 107 101 99 90 79 100 92 124 149
69 84 87 55 62 51 8 44 104 3 31 76 96 99 84 74 52 67 80 97 114 105 115 115 116 117 136 140 125 48 19 41 56 100 96 113 184 247 50 41 31 359 19 83 112 10 26 27 8 15 13 346 9 40
111 96 78 64 83 55 92 83 70 64 53 74 59 89 102 123 34 15 50 86 102 97 94 89 65 49 79 57 73 124 67 328 35 33 42 87 82 74 54 55 28 7 20 42 43 61 72 18 9 342 39 55 54 47
56 85 117 103 123 214 0 253 111 110 154 78 96 109 145 97 99 280 322 17 117 97 31 116 108 93 112 108 88 71 88 95 56 52 43 37 42 31 19 27 30 56 43 22 360 30 58 56 26 19 40 62 55 39
82 77 85 102 107 190 236 117 92 85 47 61 49 66 51 105 128 177 301 51 303 124 114 107 110 98 102 109 115 107 98 106 94 79 74 72 63 48 49 27 20 28 25 13 6 51 64 70 56 26 360 31 63 45